Location: Kalisz
(51.7636°N, 18.0893°E)
Time: 17:58:59
(UTC+01:00)

ISS - Pass Details

Date: 29 January 2019
Orbit: 403 x 411 km, 51.6° (Epoch: 20 February)

Event Time Altitude Azimuth Distance (km) Brightness Sun altitude
Rises 18:16:18 0° 257° (WSW) 2,333 1.8 -16.3°
Reaches altitude 10° 18:18:23 10° 256° (WSW) 1,475 0.3 -16.6°
Maximum altitude 18:21:41 79° 170° (S) 423 -3.9 -17.1°
Enters shadow 18:22:23 52° 94° (E) 518 -3.7 -17.2°
